Location: Caltech
(34.1382°N, 118.1253°W)
Time: 09:30:33
(UTC-07:00)

HO-68 - Visible Passes

Search period start: 02 October 2014 00:00
Search period end: 12 October 2014 00:00
Orbit: 1193 x 1204 km, 100.2° (Epoch: 02 October)

Date Brightness Start Highest point End Pass type
(mag) Time Alt. Az. Time Alt. Az. Time Alt. Az.
02 Oct ? 19:56:47 24° ENE 19:58:01 25° ENE 20:03:32 10° NNE visible
02 Oct ? 21:46:15 52° WNW 21:46:15 52° WNW 21:52:13 10° NNW visible
03 Oct ? 19:39:47 17° ENE 19:41:23 19° ENE 19:45:58 10° NNE visible
03 Oct ? 21:29:15 66° NW 21:29:15 66° NW 21:35:27 10° NNW visible
04 Oct ? 19:22:47 12° ENE 19:24:47 14° ENE 19:28:00 10° NNE visible
04 Oct ? 21:12:14 72° N 21:12:14 72° N 21:18:35 10° NNW visible
04 Oct ? 23:01:42 12° WNW 23:01:42 12° WNW 23:03:08 10° WNW visible
05 Oct ? 20:55:14 61° NE 20:55:14 61° NE 21:01:37 10° N visible
05 Oct ? 22:44:42 18° WNW 22:44:42 18° WNW 22:47:36 10° NW visible
06 Oct ? 20:38:14 48° ENE 20:38:14 48° ENE 20:44:34 10° N visible
06 Oct ? 22:27:42 24° WNW 22:27:42 24° WNW 22:31:29 10° NW visible
07 Oct ? 20:21:14 37° ENE 20:21:14 37° ENE 20:27:24 10° N visible
07 Oct ? 22:10:41 31° WNW 22:10:41 31° WNW 22:15:05 10° NNW visible
08 Oct ? 20:04:13 28° ENE 20:04:18 28° ENE 20:10:06 10° N visible
08 Oct ? 21:53:41 39° WNW 21:53:41 39° WNW 21:58:30 10° NNW visible
09 Oct ? 19:47:13 21° ENE 19:47:38 21° ENE 19:52:38 10° NNE visible
09 Oct ? 21:36:41 48° NW 21:36:41 48° NW 21:41:47 10° NNW visible
10 Oct ? 19:30:13 15° ENE 19:31:01 16° ENE 19:34:53 10° NNE visible
10 Oct ? 21:19:40 54° NNW 21:19:40 54° NNW 21:24:58 10° NNW visible
11 Oct ? 19:13:12 11° ENE 19:14:28 11° NE 19:16:17 10° NE visible
11 Oct ? 21:02:40 53° N 21:02:40 53° N 21:08:02 10° N visible
11 Oct ? 22:52:08 13° WNW 22:52:08 13° WNW 22:53:32 10° NW visible
